TimeCST,TemperatureF,Dew PointF,Humidity,Sea Level PressureIn,VisibilityMPH,Wind Direction,Wind SpeedMPH,Gust SpeedMPH,PrecipitationIn,Events,Conditions,WindDirDegrees,DateUTC
12:15 AM,33.8,15.8,48,30.13,10.0,SE,4.6,-,N/A,,Overcast,140,2013-02-17 06:15:00
12:35 AM,33.8,15.8,48,30.13,10.0,SSE,4.6,-,N/A,,Overcast,150,2013-02-17 06:35:00
12:55 AM,33.8,17.6,52,30.13,10.0,SSE,5.8,-,N/A,,Overcast,150,2013-02-17 06:55:00
1:15 AM,33.8,17.6,52,30.13,10.0,SSE,4.6,-,N/A,,Overcast,150,2013-02-17 07:15:00
1:35 AM,33.8,17.6,52,30.12,10.0,SSE,4.6,-,N/A,,Overcast,150,2013-02-17 07:35:00
2:35 AM,33.8,17.6,52,30.10,10.0,SSE,4.6,-,N/A,,Overcast,160,2013-02-17 08:35:00
2:55 AM,33.8,17.6,52,30.10,10.0,SSE,3.5,-,N/A,,Overcast,150,2013-02-17 08:55:00
3:15 AM,33.8,17.6,52,30.09,10.0,SSE,4.6,-,N/A,,Overcast,150,2013-02-17 09:15:00
3:55 AM,33.8,17.6,52,30.08,10.0,SSE,4.6,-,N/A,,Mostly Cloudy,150,2013-02-17 09:55:00
4:15 AM,32.0,17.6,55,30.08,10.0,SE,5.8,-,N/A,,Scattered Clouds,140,2013-02-17 10:15:00
4:35 AM,32.0,15.8,51,30.08,10.0,SE,5.8,-,N/A,,Clear,140,2013-02-17 10:35:00
4:55 AM,32.0,17.6,55,30.08,10.0,SE,6.9,-,N/A,,Clear,140,2013-02-17 10:55:00
5:15 AM,32.0,17.6,55,30.08,10.0,SE,5.8,-,N/A,,Clear,140,2013-02-17 11:15:00
6:45 AM,32.0,15.8,51,30.08,10.0,SSE,3.5,-,N/A,,Clear,150,2013-02-17 12:45:00
7:45 AM,33.8,15.8,48,30.08,10.0,SE,4.6,-,N/A,,Clear,140,2013-02-17 13:45:00
8:45 AM,37.4,15.8,41,30.08,10.0,SE,8.1,-,N/A,,Clear,140,2013-02-17 14:45:00
9:45 AM,42.8,19.4,39,30.08,10.0,ESE,6.9,-,N/A,,Clear,120,2013-02-17 15:45:00
10:53 AM,50.0,23.0,35,30.06,10.0,SSE,9.2,-,N/A,,Clear,150,2013-02-17 16:53:00
11:48 AM,55.4,24.8,31,30.03,10.0,South,13.8,-,N/A,,Clear,170,2013-02-17 17:48:00
1:45 PM,59.0,24.8,27,29.96,10.0,SSE,11.5,-,N/A,,Clear,150,2013-02-17 19:45:00
2:49 PM,62.6,24.8,24,29.93,10.0,SSE,10.4,16.1,N/A,,Clear,160,2013-02-17 20:49:00
4:45 PM,62.6,23.0,22,29.91,10.0,SSW,9.2,18.4,N/A,,Scattered Clouds,200,2013-02-17 22:45:00
6:45 PM,55.4,26.6,33,29.91,10.0,SSE,12.7,-,N/A,,Scattered Clouds,160,2013-02-18 00:45:00
7:55 PM,50.0,28.4,43,29.92,10.0,SSE,11.5,18.4,N/A,,Clear,150,2013-02-18 01:55:00
7:59 PM,50.0,28.4,43,29.92,10.0,SSE,10.4,18.4,N/A,,Clear,150,2013-02-18 01:59:00
8:35 PM,48.2,28.4,46,29.90,10.0,SE,10.4,-,N/A,,Clear,140,2013-02-18 02:35:00
8:45 PM,48.2,28.4,46,29.90,10.0,SE,11.5,-,N/A,,Clear,140,2013-02-18 02:45:00
8:55 PM,48.2,28.4,46,29.90,10.0,SE,12.7,17.3,N/A,,Clear,140,2013-02-18 02:55:00
9:15 PM,48.2,28.4,46,29.89,10.0,SSE,12.7,-,N/A,,Clear,150,2013-02-18 03:15:00
9:35 PM,48.2,30.2,50,29.89,10.0,SE,11.5,-,N/A,,Clear,140,2013-02-18 03:35:00
9:55 PM,48.2,30.2,50,29.88,10.0,SE,10.4,-,N/A,,Clear,140,2013-02-18 03:55:00
10:15 PM,48.2,30.2,50,29.88,10.0,SSE,11.5,-,N/A,,Clear,150,2013-02-18 04:15:00
10:35 PM,48.2,32.0,54,29.88,10.0,SE,9.2,-,N/A,,Clear,140,2013-02-18 04:35:00
10:55 PM,46.4,32.0,57,29.88,10.0,SE,8.1,-,N/A,,Clear,140,2013-02-18 04:55:00
11:15 PM,46.4,32.0,57,29.87,10.0,SE,9.2,-,N/A,,Clear,140,2013-02-18 05:15:00
11:35 PM,46.4,32.0,57,29.87,10.0,SSE,6.9,-,N/A,,Clear,160,2013-02-18 05:35:00